SCP
0 0 0 0 0 0 0 0 0 0 0 0 0 0 0 0 0 0 0 0 0 0 0 0 0 0 0 0 0 0 0 0 0 0 0 0 0 0 0 0 0 0 0 1
0 0 0 0 0 0 0 0 0 0 0 0 0 0 0 0 0 0 0 0 0 0 0 0 0 0 0 0 0 0 0 0 0 0 0 0 0 0 0 0 0 0 0 1
0 0 0 0 0 0 0 0 0 0 0 0 0 0 0 0 0 0 0 0 0 0 0 0 0 0 0 0 0 0 0 0 0 0 0 0 0 0 0 0 0 0 1 1
0 0 0 0 0 0 0 0 0 0 0 0 0 0 0 0 0 0 0 0 0 0 0 0 0 0 0 0 0 0 0 0 0 0 0 0 0 0 0 0 0 0 1 1
0 0 0 0 0 0 0 0 0 0 0 0 0 0 0 0 0 0 0 0 0 0 0 0 0 0 0 0 0 0 0 0 0 0 0 0 0 0 0 0 0 0 1 1
0 0 0 0 0 0 0 0 0 0 0 0 0 0 0 0 0 0 0 0 0 0 0 0 0 0 0 0 0 0 0 0 0 0 0 0 0 0 0 0 0 1 1 1
0 0 0 0 0 0 0 0 0 0 0 0 0 0 0 0 0 0 0 0 0 0 0 0 0 0 0 0 0 0 0 0 0 0 0 0 0 0 0 0 0 1 1 1
0 0 0 0 0 0 0 0 0 0 0 0 0 0 0 0 0 0 0 0 0 0 0 0 0 0 0 0 0 0 0 0 0 0 0 0 0 0 0 0 1 1 2 1
0 0 0 0 0 0 0 0 0 0 0 0 0 0 0 0 0 0 0 0 0 0 0 0 0 0 0 0 0 0 0 0 0 0 0 0 0 0 0 0 1 2 1 1
0 0 0 0 0 0 0 0 0 0 0 0 0 0 0 0 0 0 0 0 0 0 0 0 0 0 0 0 0 0 0 0 0 0 0 0 0 0 0 1 1 1 1 0
0 0 0 0 0 0 0 0 0 0 0 0 0 0 0 0 0 0 0 0 0 0 0 0 0 0 0 0 0 0 0 0 0 0 0 0 0 0 0 1 1 1 0 0
0 0 0 0 0 0 0 0 0 0 0 0 0 0 0 0 0 0 0 0 0 0 0 0 0 0 0 0 0 0 0 0 0 0 0 0 0 0 0 0 0 0 0 0
0 0 0 0 0 0 0 0 0 0 0 0 0 0 0 0 0 0 0 0 0 0 0 0 0 0 0 0 0 0 0 0 0 0 0 0 0 0 0 0 0 0 0 0
0 0 0 0 0 0 0 0 0 0 0 0 0 0 0 0 0 0 0 0 0 0 0 0 0 0 0 0 0 0 0 0 0 0 0 0 0 0 0 0 0 0 0 0
0 0 0 0 0 0 0 0 0 0 0 0 0 0 0 0 0 0 0 0 0 0 0 0 0 0 0 0 0 0 0 0 0 0 0 0 0 0 0 0 0 0 0 0
0 0 0 0 0 0 0 0 0 0 0 0 0 0 0 0 0 0 0 0 0 0 0 0 0 0 0 0 0 0 0 0 0 0 0 0 0 0 0 0 0 0 0 0
0 0 0 0 0 0 0 0 0 0 0 0 0 0 0 0 0 0 0 0 0 0 0 0 0 0 0 0 0 0 0 0 0 0 0 0 0 0 0 0 0 0 0 0
0 0 0 0 0 0 0 0 0 0 0 0 0 0 0 0 0 0 0 0 0 0 0 0 0 0 0 0 0 0 0 0 0 0 0 0 0 0 0 0 0 0 0 0
0 0 0 0 0 0 0 0 0 0 0 0 0 0 0 0 0 0 0 0 0 0 0 0 0 0 0 0 0 0 0 0 0 0 0 0 0 0 0 0 0 0 0 0
0 0 0 0 0 0 0 0 0 0 0 0 0 0 0 0 0 0 0 0 0 0 0 0 0 0 0 0 0 0 0 0 0 0 0 0 0 0 0 0 0 0 0 0
0 0 0 0 0 0 0 0 0 0 0 0 0 0 0 0 0 0 0 0 0 0 0 0 0 0 0 0 0 0 0 0 0 0 0 0 0 0 0 0 0 0 0 0
0 0 0 0 0 0 0 0 0 0 0 0 0 0 0 0 0 0 0 0 0 0 0 0 0 0 0 0 0 0 0 0 0 0 0 0 0 0 0 0 0 0 0 0
0 0 0 0 0 0 0 0 0 0 0 0 0 0 0 0 0 0 0 0 0 0 0 0 0 0 0 0 0 0 0 0 0 0 0 0 0 0 0 0 0 0 0 0
0 0 0 0 0 0 0 0 0 0 0 0 0 0 0 0 0 0 0 0 0 0 0 0 0 0 0 0 0 0 0 0 0 0 0 0 0 0 0 0 0 0 0 0
0 0 0 0 0 0 0 0 0 0 0 0 0 0 0 0 0 0 0 0 0 0 0 0 0 0 0 0 0 0 0 0 0 0 0 0 0 0 0 0 0 0 0 0
0 0 0 0 0 0 0 0 0 0 0 0 0 0 0 0 0 0 0 0 0 0 0 0 0 0 0 0 0 0 0 0 0 0 0 0 0 0 0 0 0 0 0 0
0 0 0 0 0 0 0 0 0 0 0 0 0 0 0 0 0 0 0 0 0 0 0 0 0 0 0 0 0 0 0 0 0 0 0 0 0 0 0 0 0 0 0 0
Wind_Speed
7 7 5 5 6 6 7 7 6 6 5 4 2 1 1 1 1 1 2 3 3 4 4 5 5 5 5 5 5 5 5 5 5 4 4 4 4 4 3 3 4 3 3 3
6 5 4 7 7 7 7 7 8 7 7 2 1 2 1 1 1 1 2 2 3 4 4 5 5 5 5 5 5 5 5 5 5 5 5 5 5 4 4 4 3 3 3 3
4 2 4 7 6 7 5 4 4 7 5 1 1 1 1 1 1 0 1 2 3 3 4 4 5 5 5 5 5 5 4 5 5 5 5 5 5 4 4 4 4 4 3 3
3 2 7 5 1 3 3 2 2 2 1 0 0 0 0 2 1 1 2 2 3 3 4 4 4 5 5 5 5 4 4 5 5 5 5 5 5 5 4 3 3 4 4 3
2 4 6 2 1 1 2 2 1 2 2 1 1 1 1 2 2 1 1 1 2 2 3 4 4 5 4 4 4 4 5 5 5 5 6 5 5 5 4 4 4 4 3 3
3 4 6 2 1 1 2 3 1 1 0 1 1 1 2 1 2 2 2 2 2 3 3 3 4 4 4 4 4 5 6 6 5 5 5 6 6 6 5 4 4 4 4 3
5 5 5 1 1 1 2 4 1 1 0 1 1 2 1 1 1 1 2 2 2 3 3 3 4 4 5 5 5 6 6 6 6 5 5 5 5 5 5 5 4 4 4 4
4 6 6 0 2 3 3 1 1 2 2 1 1 1 1 1 1 2 2 3 3 3 4 4 4 4 5 6 6 6 6 6 6 6 5 5 4 4 4 4 4 4 3 4
4 4 1 3 2 1 1 1 1 2 2 2 1 2 2 2 2 2 2 3 3 3 4 4 4 4 5 6 6 6 6 7 6 6 5 5 4 4 4 3 3 3 3 3
2 2 1 1 1 1 1 1 2 2 1 1 2 2 3 2 2 3 3 3 3 3 4 5 4 5 5 6 6 6 6 7 7 6 5 4 3 3 3 3 3 3 3 3
3 2 1 1 1 0 1 2 2 2 2 1 1 2 2 3 3 3 3 3 3 3 4 5 5 5 6 6 6 6 6 6 6 6 5 4 4 3 4 3 4 4 3 3
4 2 1 1 1 2 1 1 1 2 2 2 2 2 3 3 3 3 3 3 4 4 5 5 5 5 6 5 5 6 6 6 5 5 5 4 4 4 6 7 9 9 9 7
1 1 1 0 1 2 1 1 2 1 1 2 2 2 2 3 3 3 3 4 4 5 5 5 5 6 6 5 6 6 6 6 5 5 5 4 4 4 5 6 8 9 9 10
1 1 1 1 1 2 2 2 2 2 2 2 2 2 2 3 3 3 4 4 4 4 5 5 5 6 6 5 6 6 6 7 7 5 5 5 4 4 4 4 4 4 6 9
2 1 0 1 2 2 2 2 2 2 2 2 2 2 2 3 3 4 4 5 5 5 5 5 5 6 5 5 6 6 6 5 5 4 5 5 4 4 4 4 4 4 4 5
1 1 1 1 2 2 2 2 2 3 3 3 3 3 3 3 4 4 4 4 4 5 6 5 6 6 6 5 6 5 5 9 8 5 4 4 4 4 4 4 4 4 4 4
1 1 2 3 3 3 2 2 2 3 3 3 3 3 3 4 4 4 4 4 4 5 5 6 7 7 6 5 5 4 5 6 10 6 4 4 4 4 4 4 4 4 4 6
1 1 2 2 3 3 3 3 3 3 3 3 3 3 3 3 5 5 5 5 5 5 5 6 6 6 5 6 5 4 4 4 5 5 5 5 5 4 4 4 4 5 5 5
1 1 2 2 2 2 3 3 3 3 3 3 3 4 4 4 5 5 5 5 5 6 6 6 10 7 6 7 7 4 4 5 5 5 5 7 7 4 4 4 5 5 5 4
1 1 2 2 2 2 3 3 3 3 3 3 3 4 4 5 4 5 5 5 4 4 5 7 6 5 6 6 8 4 4 4 5 5 5 5 5 5 5 5 5 5 5 4
2 2 2 2 3 3 3 3 3 4 4 3 3 4 5 5 5 4 4 6 5 5 5 8 5 4 5 6 7 3 4 4 5 5 5 5 5 5 5 5 5 5 5 5
2 2 2 2 3 3 3 3 3 4 4 4 4 4 5 5 5 5 5 5 5 9 6 4 4 7 8 8 3 3 4 4 4 4 4 5 5 5 5 5 5 5 5 5
2 2 2 3 3 4 4 3 4 4 4 4 4 5 5 5 4 5 6 4 4 9 6 4 8 12 12 5 3 3 4 4 4 5 5 5 5 5 5 5 5 5 5 5
2 2 3 3 3 3 4 4 4 3 4 4 4 4 5 5 4 4 4 9 11 11 5 8 12 13 10 3 3 3 4 4 4 5 5 5 5 5 5 5 5 5 5 6
2 2 2 2 3 3 4 4 4 4 4 4 4 4 4 3 4 4 4 6 10 10 5 8 13 12 6 3 4 4 4 5 5 5 4 5 5 5 5 5 5 6 6 6
2 2 3 3 3 3 3 3 3 4 4 4 4 4 3 3 4 4 4 5 7 9 6 4 5 7 4 4 4 5 5 6 7 6 5 5 6 6 6 6 7 6 6 6
2 2 2 2 2 2 2 3 4 4 4 5 6 5 4 4 4 4 5 5 5 5 5 4 4 4 4 4 5 5 5 5 5 5 5 5 5 6 6 7 6 6 6 6
Wind_Direction
270 285 274 258 251 227 219 226 234 250 258 268 244 212 170 96 79 76 33 8 0 358 355 351 349 350 348 343 344 344 342 340 335 333 333 330 325 320 310 294 285 273 256 246
277 264 263 272 262 241 239 241 244 261 270 297 33 85 109 112 88 34 356 352 355 352 348 344 341 340 339 338 338 339 338 334 336 338 335 330 322 318 312 303 289 282 269 254
267 292 322 274 246 222 219 225 220 242 248 50 50 28 189 166 146 323 342 349 347 342 337 335 334 333 327 325 329 333 331 330 334 332 328 322 316 317 312 305 301 286 277 264
271 309 249 241 71 148 184 243 224 230 290 337 213 340 85 123 116 8 353 349 343 338 335 334 332 329 322 323 326 329 330 328 328 327 321 319 315 309 305 300 295 287 272 268
238 252 262 251 188 150 174 270 240 222 274 345 56 46 41 61 50 16 342 331 323 328 323 327 328 324 321 324 326 328 326 324 323 320 316 314 311 304 296 291 285 281 279 266
228 242 249 247 38 27 101 267 309 98 279 5 43 277 268 29 18 7 8 1 346 338 333 331 327 327 328 325 326 323 319 317 315 312 306 303 301 299 295 287 283 285 285 276
232 242 258 284 303 88 165 247 350 48 4 52 237 239 289 349 352 2 355 349 347 335 325 324 330 334 329 327 322 319 317 314 311 308 302 296 295 296 295 292 290 287 284 280
209 227 247 104 125 176 215 35 36 33 27 10 347 0 352 342 340 347 343 343 343 332 324 327 336 336 327 323 321 321 317 313 310 307 303 303 299 298 298 297 293 287 284 282
200 215 175 142 155 149 59 44 15 12 358 1 342 324 328 326 325 329 329 328 332 326 322 325 332 333 323 321 324 323 319 314 311 309 304 302 296 294 293 289 287 291 290 291
257 262 212 171 134 44 44 33 7 11 2 352 309 313 317 316 321 323 321 321 328 326 322 323 326 327 322 322 324 321 316 314 313 311 305 299 293 289 288 286 288 290 291 291
253 270 320 291 203 100 46 33 21 15 4 338 320 315 313 307 311 313 317 322 323 318 313 314 321 321 322 324 325 320 315 314 313 313 306 299 295 283 284 271 275 280 275 281
235 238 218 257 41 49 66 10 349 346 341 346 337 313 315 308 310 311 314 320 318 314 312 313 318 317 319 322 322 318 315 317 316 317 312 306 302 304 297 292 296 295 294 291
231 27 60 312 14 43 31 348 346 336 314 319 325 319 312 307 311 317 316 315 310 309 310 311 312 310 313 317 317 312 308 311 311 313 312 307 306 306 309 312 304 302 302 299
60 57 2 30 21 10 5 355 354 342 327 318 316 321 319 315 315 313 307 307 308 308 306 305 304 304 309 313 311 308 305 303 307 307 307 302 300 301 300 303 309 308 306 305
42 60 270 341 350 353 7 9 353 333 331 333 334 328 323 315 307 306 310 314 315 311 308 307 305 305 312 314 310 306 304 302 303 304 302 301 300 299 298 299 299 301 303 306
350 358 344 322 316 331 347 340 315 310 319 320 321 317 311 304 300 303 306 309 307 304 306 305 302 306 313 311 308 306 302 304 309 308 305 306 303 300 299 299 300 300 301 304
45 330 326 315 312 314 307 294 284 292 302 302 302 306 307 305 302 303 303 300 293 290 295 297 301 307 307 306 305 303 303 304 307 309 307 304 302 299 296 296 296 297 297 301
208 258 272 277 289 298 304 305 301 300 295 295 302 301 297 293 291 297 303 307 306 299 297 300 303 305 305 306 305 299 299 300 303 303 304 302 300 297 299 299 299 299 298 301
287 303 309 301 290 282 284 292 297 297 297 297 292 287 283 282 284 290 297 301 300 299 302 302 309 314 310 306 310 298 297 297 300 300 301 302 305 303 300 296 293 293 295 297
343 340 328 317 308 286 280 284 288 289 288 286 285 287 288 287 289 290 289 279 271 277 293 303 306 303 302 300 307 301 302 303 303 303 301 298 298 297 294 294 293 293 293 293
310 311 309 308 306 297 286 282 280 283 288 284 277 279 283 287 286 283 286 287 291 292 297 305 309 304 302 304 305 299 296 296 296 297 300 300 300 300 298 295 293 293 293 294
284 286 288 293 295 297 294 285 276 276 280 280 279 283 289 292 292 286 270 271 291 303 307 295 294 300 305 307 299 295 295 296 295 296 295 296 297 298 298 300 298 297 295 293
281 280 284 286 287 292 298 290 279 275 276 278 282 284 284 285 286 290 294 293 294 299 304 293 300 305 309 310 301 295 295 294 293 293 293 294 296 297 297 298 297 297 295 294
286 285 284 287 289 292 293 291 287 283 278 276 273 274 278 286 285 274 280 301 307 306 303 302 309 312 315 314 304 297 294 291 288 289 290 291 292 293 293 294 294 293 291 290
285 283 282 287 286 284 289 300 301 295 291 288 285 281 274 271 279 289 289 291 300 308 307 307 310 314 317 306 298 292 290 287 288 289 285 287 287 288 288 288 287 287 286 285
280 280 277 272 273 282 290 294 295 296 298 297 295 288 285 283 283 285 287 289 291 302 305 301 303 305 301 296 292 290 287 292 297 295 290 287 286 285 286 287 286 284 283 282
284 282 285 290 290 291 291 289 289 293 296 295 294 293 292 291 290 290 292 293 294 295 294 294 293 291 290 290 290 290 288 287 286 285 285 283 281 280 282 282 282 282 283 283